STARLINK-32636, 62232

Orbit data source: Space-Track

STARLINK-32636, 62232 is a payload satellite owned by SpaceX/Seattle (US) in LEO that was launched on Thu, 05 Dec 2024 UTC via an FALCON 9 launch vehicle from the Air Force Western Test Range (AFWTR). Payload-class satellites include a variety of spacecraft equipped with specific instruments for various scientific and technological missions. These include communications satellites like Starlink; space stations such as the ISS; scientific satellites like the Hubble; Earth observation satellites from companies like Planet Labs, Umbra, and HawkEye 360; GPS; miniature CubeSats for education and research; and military/defense satellites.

Loading next visibility...
Identifier
62232, 2024-231Q
Orbit
LEO
Last TLE update
17 hours ago
Origin
Manufacturer
SpaceX/Seattle
Mission
Operational Commercial Communications
Bus & Motor
STARLINK V2M, Unknown motor
Mass
730 kg wet, ~700 kg dry
Launch date (UTC)
2024-12-05 (7 months ago)
Launch vehicle
FALCON 9
Launch site
Air Force Western Test Range (AFWTR)
Object type
Payload
Rocket body
Debris
Shape & HBR
Box + 2 Pan, 29 m
Radar Cross Section
33.884 m², Large (>1 m²)

Expand to show TLE details & history

TLE from 17 hours ago
0 STARLINK-32636
1 62232U 24231Q   25181.65092216  .00006922  00000-0  24563-3 0  9997
2 62232  53.1588 310.0826 0001284  96.3430 263.7717 15.30197960 33186
Epoch: 2025-06-30T15:37Z
TLE epoch observation values (Epoch: 2025-06-30T15:37:19.674Z)
Latitude
-0.00003°
Longitude
156.79293°
Altitude
476.216 km
Speed
7.629 km/s
True Right ascension
20h 40m 19s
True Declination
0° 00' 00"
Sunlit
Object was in full shadow at epoch
Visualization orbit readout
Latitude
-51.62769°
Longitude
83.30055°
Altitude
493.96 km
Speed
7.617 km/s
Apparent Right ascension
11h 34m 00s
Apparent Declination
-62° 01' 22"
Sunlit
Object is in full shadow
Visualization observer readout
Local Sidereal Time
20:09:41
Azimuth
216.78° SW
Elevation
-52.44°
Doppler factor
1
Orbital elements
Apogee altitude
476.358 km
Perigee altitude
474.598 km
Semi-major axis
6,853.615 km
Eccentricity
0.00013
Inclination
53.1588°
RAAN
310.0826°
Arg. of periapsis
96.343°
True anomaly
Unknown
Mean anomaly
263.7717°
Eccentric anomaly
Unknown
Mean motion
3.82528 °/min
Orbital period
94.11 mins
BSTAR
0.00024563
Loading maneuver chart data...
Loading SW <> Apogee altitude chart data...
Loading historical data...
Loading historical data...
Loading historical data...
Loading historical data...
Loading historical data...
Loading historical data...
Loading historical data...

STARLINK-32636 Visibility forecast

Observer location: undefined°, undefined°

Span
Click to sort rows by Start time (UTC) header in descending order
Start Az.
Max El. time (UTC)
Max El. Az.
Max El.
End time (UTC)
End Az.
6 mins2025-07-01 10:35:32.963Z193.217° SSW2025-07-01 10:38:32.963Z122.01° SE28.472°2025-07-01 10:41:32.963Z67.485° ENE
4 mins2025-07-01 12:14:32.963Z284.121° WNW2025-07-01 12:16:32.963Z342.57° N27.019°2025-07-01 12:18:32.963Z25.556° NE
4 mins2025-07-01 17:11:32.963Z346.114° N2025-07-01 17:13:32.963Z47.56° ENE27.615°2025-07-01 17:15:32.963Z89.433° E
4 mins2025-07-01 18:49:32.963Z269.037° W2025-07-01 18:50:32.963Z242.32° WSW26.896°2025-07-01 18:53:32.963Z170.048° S
|